Big Piney, WY

11:33 PM MST on December 05, 2016 (GMT -0700)
Big Piney-Marbleton

Weather History for KBPI - August, 2013

Change the Weather History Date:

Sunday, August 4, 2013

  Actual Average Record
Temperature  
Mean Temperature 64 °F 62 °F  
Max Temperature 87 °F 82 °F 93 °F (1983)
Min Temperature 41 °F 43 °F 25 °F (2016)
Degree Days  
Heating Degree Days 1 3  
Month to date heating degree days 4 12  
Since 1 June heating degree days 245 434  
Since 1 July heating degree days 28 129  
Cooling Degree Days 0 1  
Month to date cooling degree days 0 4  
Year to date cooling degree days 77 28  
Since 1 June cooling degree days 77 28  
Growing Degree Days 14 (Base 50)    
Moisture  
Dew Point 28 °F    
Average Humidity 37    
Maximum Humidity 65    
Minimum Humidity 8    
Precipitation  
Precipitation 0.00 in 0.02 in 0.22 in (2014)
Month to date precipitation 0.05 0.09  
Year to date precipitation 2.64 4.06  
Sea Level Pressure  
Sea Level Pressure 29.97 in    
Wind  
Wind Speed 7 mph (NNW)    
Max Wind Speed 22 mph    
Max Gust Speed 29 mph    
Visibility 10 miles    
Events      
T = Trace of Precipitation, MM = Missing Value Source: NWS Daily Summary

Daily Weather History Graph

Daily Weather History Graph

Search for Another Location

Airport or City:

Trip Planner

Search our weather history database for the weather conditions in past years. The results will help you decide how hot, cold, wet, or windy it might be!

Date:

Astronomy

Aug. 04, 2013 Rise Set
Actual Time 6:15 AM MDT 8:36 PM MDT
Civil Twilight 5:44 AM MDT 9:07 PM MDT
Nautical Twilight 5:05 AM MDT 9:46 PM MDT
Astronomical Twilight 4:21 AM MDT 10:30 PM MDT
Moon 4:19 AM MDT (8/4) 7:01 PM MDT (8/4)
Length of Visible Light 15h 23m
Length of Day
14h 20m
Waning Crescent, 4% of the Moon is Illuminated
Aug 4
Waning Crescent
Aug 6
New
Aug 14
First Quarter
Aug 20
Full
Aug 28
Last Quarter

Hourly Weather History & Observations

Time (MDT) Temp. Windchill Dew Point Humidity Pressure Visibility Wind Dir Wind Speed Gust Speed Precip Events Conditions
12:53 AM 55.0 °F - 28.0 °F 35% 29.95 in 10.0 mi East 3.5 mph - N/A   Clear
1:53 AM 50.0 °F - 28.0 °F 43% 29.96 in 10.0 mi NE 3.5 mph - N/A   Clear
2:53 AM 45.0 °F - 30.0 °F 56% 29.98 in 10.0 mi Calm Calm - N/A   Clear
3:53 AM 46.9 °F - 28.0 °F 48% 29.97 in 10.0 mi Calm Calm - N/A   Clear
4:53 AM 41.0 °F - 30.0 °F 65% 30.01 in 10.0 mi Calm Calm - N/A   Clear
5:53 AM 44.1 °F 40.1 °F 28.9 °F 55% 30.01 in 10.0 mi North 6.9 mph - N/A   Clear
6:53 AM 44.1 °F 41.5 °F 32.0 °F 63% 30.02 in 10.0 mi East 4.6 mph - N/A   Clear
7:53 AM 52.0 °F - 30.0 °F 43% 30.03 in 10.0 mi East 6.9 mph - N/A   Clear
8:53 AM 60.1 °F - 32.0 °F 35% 30.03 in 10.0 mi ENE 5.8 mph - N/A   Clear
9:53 AM 66.9 °F - 28.9 °F 24% 30.01 in 10.0 mi East 3.5 mph - N/A   Clear
10:53 AM 71.1 °F - 27.0 °F 19% 29.99 in 10.0 mi South 8.1 mph - N/A   Clear
11:53 AM 77.0 °F - 32.0 °F 19% 29.96 in 10.0 mi Variable 4.6 mph - N/A   Clear
12:53 PM 82.0 °F - 26.1 °F 13% 29.93 in 10.0 mi Variable 4.6 mph - N/A   Clear
1:53 PM 82.9 °F - 19.0 °F 9% 29.94 in 10.0 mi West 15.0 mph 20.7 mph N/A   Clear
2:53 PM 86.0 °F - 17.1 °F 8% 29.94 in 10.0 mi West 9.2 mph 26.5 mph N/A   Clear
3:53 PM 84.9 °F - 19.0 °F 9% 29.93 in 10.0 mi West 12.7 mph 21.9 mph N/A   Clear
4:53 PM 81.0 °F - 24.1 °F 12% 29.95 in 10.0 mi West 15.0 mph 21.9 mph N/A   Clear
5:53 PM 80.1 °F - 28.0 °F 15% 29.95 in 10.0 mi WSW 12.7 mph - N/A   Clear
6:53 PM 78.1 °F - 28.9 °F 17% 29.95 in 10.0 mi West 9.2 mph - N/A   Clear
7:53 PM 75.0 °F - 30.9 °F 20% 29.94 in 10.0 mi WNW 9.2 mph - N/A   Clear
8:53 PM 66.9 °F - 30.0 °F 25% 29.95 in 10.0 mi NW 9.2 mph - N/A   Clear
9:53 PM 62.1 °F - 28.0 °F 28% 29.96 in 10.0 mi NNW 6.9 mph - N/A   Clear
10:53 PM 57.9 °F - 28.0 °F 32% 29.96 in 10.0 mi NNW 10.4 mph - N/A   Clear
11:53 PM 57.0 °F - 28.0 °F 33% 29.95 in 10.0 mi NNW 9.2 mph - N/A   Clear